Main page
METAR-TAF:

METAR-TAF

Airports :

Vlissingen, Netherlands

latitude: 51-27N, longitude: 3-36E, elevation: 10 m

Current weather observation

The report was made 44 minutes ago, at 10:55 UTC
Wind 10 kt from the West, varying between West/Southwest and West/Northwest
Temperature 23°C
Humidity 65%
Pressure 1017 hPa
Visibility 10 km or more

METAR: EHFS 231055Z AUTO 27010KT 240V300 9999 NSC 23/16 Q1017 W///H///

Time: 13:39 (11:39 UTC)


TAF: missing

Weather observations and forecasts of more than 4000 airports (METAR and TAF reports).

The available stations are represented by yellow and red dots on the map.

Hover mouse over dot to see the name of the station.

Then click to see weather observations and forecasts.

To change the map : click on the green buttons with a black cross to zoom in, on the green button with a dash to zoom out, or on the green arrows for adjacent maps.


METAR-TAF: